Weather observations for the past three days for
Joliet Regional Airport
Imperial (Metric)
Date Time (cdt) Wind (mph) Vis. (mi.) Weather Sky Cond. Temperature (ºF) Relative Humidity Wind Chill (°F) Heat Index (°F) Pressure Precipitation (in)
Air Dwpt 6 hour altimeter (in) sea level (mb) 1 hr 3 hr 6 hr
Max. Min.
15 20:35 S 12 G 18 10.00 Fair CLR 87.1 80.8 82% 104 29.69 0.0
15 20:15 S 12 10.00 Partly Cloudy SCT028 86.9 81.1 83% 104 29.69 0.0
15 19:55 S 6 10.00 Partly Cloudy SCT028 86.9 81.1 83% 104 29.71 0.0
15 19:35 S 7 10.00 Partly Cloudy SCT120 87.1 81 82% 104 29.69 0.0
15 19:15 S 6 10.00 Mostly Cloudy SCT027 SCT037 BKN120 87.3 80.4 80% 104 29.71 0.0
15 18:55 S 6 10.00 Mostly Cloudy SCT029 SCT040 BKN110 87.6 79.7 90.5 85.3 77% 103 29.71 0.0
15 18:35 S 10 10.00 Overcast SCT029 BKN038 OVC110 88.3 79.2 74% 104 29.72 0.0
15 18:15 S 6 10.00 Mostly Cloudy SCT030 SCT039 BKN110 89.1 78.1 70% 103 29.72 0.0
15 17:55 S 7 10.00 Mostly Cloudy SCT032 SCT040 BKN100 88.2 78.8 74% 103 29.72 0.0
15 17:35 S 12 G 17 10.00 Partly Cloudy SCT032 90 77.9 68% 104 29.74 0.0
15 17:15 SW 8 10.00 Partly Cloudy SCT032 89.6 78.3 69% 104 29.76 0.0
15 16:55 SW 10 10.00 Fair CLR 90.5 78.3 67% 106 29.77 0.0
15 16:35 SW 7 10.00 Fair CLR 90.1 77.5 67% 104 29.78 0.0
15 16:15 SW 6 10.00 Fair CLR 88 76.6 69% 100 29.79 0.0
15 15:55 S 7 10.00 Partly Cloudy SCT030 89.2 77.9 69% 103 29.79 0.0
15 15:35 S 8 10.00 Partly Cloudy SCT030 90 78.6 69% 105 29.8 0.0
15 15:15 S 3 10.00 Mostly Cloudy BKN028 89.4 77.9 69% 104 29.81 0.0
15 14:55 SW 6 10.00 Mostly Cloudy BKN028 88.9 77.5 69% 102 29.84 0.0
15 14:35 Calm 10.00 Partly Cloudy SCT026 88.7 76.8 68% 101 29.83 0.0
15 14:15 SW 5 10.00 Mostly Cloudy BKN024 88 77.9 72% 101 29.84 0.0
15 13:55 S 5 10.00 Mostly Cloudy BKN022 BKN029 87.1 78.1 75% 100 29.86 0.0
15 13:35 W 3 10.00 Partly Cloudy SCT022 86.4 76.6 73% 97 29.86 0.0
15 13:15 Calm 10.00 Partly Cloudy SCT020 85.5 76.5 75% 96 29.87 0.0
15 12:55 W 3 10.00 Fair CLR 85.1 76.6 85.3 69.3 76% 95 29.87 0.0
15 12:35 Calm 10.00 Partly Cloudy SCT017 84.4 76.5 77% 94 29.88 0.0
15 12:15 SW 6 10.00 Partly Cloudy SCT015 83.7 76.5 79% 93 29.88 0.0
15 11:55 SW 3 10.00 Partly Cloudy SCT013 82.6 76.1 81% 90 29.89 0.0
15 11:35 SW 6 10.00 Overcast OVC013 81.7 76.1 83% 89 29.89 0.0
15 11:15 W 7 10.00 Overcast OVC013 81.3 75.4 82% 88 29.89 0.0
15 10:55 SW 8 10.00 Overcast OVC013 81 75.4 83% 87 29.89 0.0
15 10:35 SW 5 10.00 Overcast OVC013 80.4 74.8 83% 86 29.88 0.0
15 10:15 W 5 10.00 Overcast OVC013 79.5 74.1 84% 84 29.88 0.0
15 09:55 SW 5 10.00 Overcast OVC013 78.8 73.6 84% 82 29.88 0.0
15 09:35 SW 3 10.00 Mostly Cloudy BKN015 77.9 72.5 84% 80 29.87 0.0
15 09:15 Calm 10.00 Fair CLR 76.6 72.3 87% 78 29.88 0.0
15 08:55 SW 3 10.00 Fair CLR 75.2 71.2 88% 75 29.88 0.0
15 08:35 SW 3 10.00 Fair CLR 75 71.1 88% 75 29.88 0.0
15 08:15 SW 3 10.00 Fair CLR 73.2 70.2 90% 29.89 0.0
15 07:55 SW 3 10.00 Fair CLR 72.5 69.8 91% 29.89 0.0
15 07:35 SW 3 10.00 Fair CLR 71.4 69.8 95% 29.89 0.0
15 07:15 S 3 10.00 Fair CLR 70.2 69.4 98% 29.89 0.0
15 06:55 Calm 10.00 Fair CLR 69.3 68.7 70.7 67.8 98% 29.88 0.0
15 06:35 Calm 7.00 Fair CLR 68.4 68 99% 29.88 0.0
15 06:15 Calm 7.00 Fair CLR 68 67.3 98% 29.87 0.0
15 05:55 Calm 7.00 Fair CLR 68.2 67.5 98% 29.88 0.0
15 05:35 Calm 10.00 Fair CLR 68.5 67.6 97% 29.88 0.0
15 05:15 Calm 10.00 Fair CLR 69.1 68.2 97% 29.88 0.0
15 04:55 S 3 10.00 Fair CLR 68.9 68.2 98% 29.88 0.0
15 04:35 S 3 10.00 Fair CLR 69.1 68.2 97% 29.89 0.0
15 04:15 S 3 10.00 Fair CLR 69.3 68.4 97% 29.89 0.0
15 03:55 SW 3 10.00 Fair CLR 70.2 68.9 96% 29.88 0.0
15 03:35 SW 3 10.00 Fair CLR 70.7 68.9 94% 29.87 0.0
15 03:15 SW 5 10.00 Fair CLR 70.3 68.7 95% 29.86 0.0
15 02:55 SW 6 10.00 Fair CLR 69.6 68.5 96% 29.86 0.0
15 02:35 Calm 10.00 Fair CLR 69.1 68.2 97% 29.86 0.0
15 02:15 SE 3 10.00 Fair CLR 69.1 68.2 97% 29.87 0.0
15 01:55 Calm 10.00 Partly Cloudy SCT080 SCT110 68.9 68 97% 29.86 0.0
15 01:35 N 5 10.00 Light Rain SCT021 SCT080 BKN110 69.1 68 96% 29.88 0.0
15 01:15 S 6 10.00 Light Rain SCT008 SCT012 BKN120 69.8 68.4 95% 29.88 0.0
15 00:55 SW 7 10.00 Rain BKN008 BKN055 OVC110 70.5 69.1 87.4 70.3 95% 29.91 0.0 0.33 0.96
15 00:35 NE 7 10.00 Light Rain SCT055 SCT070 OVC110 71.2 69.8 95% 29.86 0.0 0.31
15 00:15 W 3 10.00 Rain SCT049 BKN070 OVC110 71.4 69.6 94% 29.85 0.0 0.16
14 23:55 NW 3 G 16 7.00 Heavy Rain SCT015 BKN055 OVC070 71.6 70.2 95% 29.88 0.0 0.52
14 23:35 NW 12 G 23 1.50 Heavy Rain BKN013 OVC027 70.3 69.3 96% 29.9 0.0 0.27
14 23:15 N 6 4.00 Heavy Rain SCT015 BKN026 OVC080 70.9 69.3 95% 29.87 0.0 0.12
14 22:55 Calm 2.50 Heavy Rain SCT012 BKN024 OVC040 71.6 69.8 94% 29.9 0.0 0.1
14 22:35 N 22 G 30 10.00 Mostly Cloudy and Breezy SCT043 BKN060 BKN080 83.5 75 76% 91 29.91 0.0
14 22:15 S 10 G 18 10.00 Mostly Cloudy BKN060 BKN075 83.8 76.1 78% 93 29.86 0.0
14 21:55 S 8 10.00 Partly Cloudy SCT060 83.7 76.3 79% 93 29.84 0.0
14 21:35 S 7 10.00 Partly Cloudy SCT055 83.8 76.3 78% 93 29.85 0.0
14 21:15 S 9 10.00 Mostly Cloudy SCT043 BKN055 84 76.5 78% 93 29.85 0.0
14 20:55 S 7 10.00 Overcast BKN042 OVC060 84.7 77 78% 95 29.86 0.0
14 20:35 S 7 10.00 Overcast SCT033 BKN042 OVC048 84.9 77 77% 95 29.86 0.0
14 20:15 Calm 10.00 Overcast SCT035 BKN040 OVC049 84.9 76.5 76% 95 29.86 0.0
14 19:55 Calm 10.00 Mostly Cloudy BKN040 BKN047 BKN055 84.9 76.3 75% 95 29.87 0.0
14 19:35 Calm 10.00 Fair CLR 86.2 76.1 72% 96 29.89 0.0
14 19:15 SW 7 10.00 Fair CLR 86.9 75.7 70% 97 29.9 0.0
14 18:55 S 3 10.00 Fair CLR 87.4 76.3 88.7 79.9 70% 98 29.9 0.0
14 18:35 SW 5 10.00 Partly Cloudy SCT036 88.2 75.7 67% 99 29.9 0.0
14 18:15 SW 3 10.00 Partly Cloudy SCT036 87.8 75.6 67% 98 29.91 0.0
14 17:55 S 10 10.00 Partly Cloudy SCT038 88.7 75.4 65% 99 29.91 0.0
14 17:35 SW 9 G 16 10.00 Fair CLR 88.7 74.7 63% 98 29.9 0.0
14 17:15 S 7 10.00 Fair CLR 88.7 73.9 62% 98 29.91 0.0
14 16:55 SW 9 10.00 Fair CLR 88.7 73.9 62% 98 29.91 0.0
14 16:35 SW 8 10.00 Fair CLR 88.5 72.9 60% 96 29.91 0.0
14 16:15 S 8 10.00 Fair CLR 87.8 74.7 65% 97 29.91 0.0
14 15:55 S 7 10.00 Fair CLR 85.3 74.7 71% 94 29.92 0.0
14 15:35 S 12 G 16 10.00 Fair CLR 85.8 75 70% 95 29.92 0.0
14 15:15 Calm 10.00 Partly Cloudy SCT095 SCT120 82.6 76.8 83% 91 29.93 0.0
14 14:55 S 3 10.00 Light Rain SCT032 SCT070 BKN100 80.1 75.2 85% 85 29.94 0.0
14 14:35 SW 7 G 16 10.00 Light Rain SCT032 SCT050 BKN120 82.2 72.7 73% 88 29.94 0.0
14 14:15 SW 8 10.00 Mostly Cloudy BKN120 84.2 73 69% 91 29.94 0.0
14 13:55 SW 7 10.00 Partly Cloudy SCT120 82.4 71.4 70% 87 29.94 0.0
14 13:35 SW 9 G 16 10.00 Fair CLR 83.7 70.9 66% 88 29.95 0.0
14 13:15 SW 10 G 16 10.00 Fair CLR 84.2 70.5 64% 89 29.94 0.0
14 12:55 SW 9 10.00 Fair CLR 84.4 70.3 84.4 70.3 63% 89 29.93 0.0 0.44
14 12:35 SW 9 10.00 Fair CLR 82.8 71.2 68% 87 29.93 0.0
14 12:15 SW 3 10.00 Fair CLR 80.2 71.6 75% 84 29.92 0.0
14 11:55 SW 6 10.00 Fair CLR 76.6 71.6 84% 78 29.93 0.0
14 11:35 S 3 10.00 Fair CLR 72.9 70.5 92% 29.95 0.0
14 11:15 S 7 10.00 Fair CLR 71.6 69.8 94% 29.99 0.0
14 10:55 SW 9 10.00 Light Rain SCT085 BKN110 70.5 68.5 93% 30.01 0.0 0.01
14 10:35 SW 9 10.00 Light Rain BKN110 70.7 68 91% 30.01 0.0
14 10:15 SW 8 10.00 Light Rain SCT070 SCT090 SCT120 71.6 69.3 92% 30.04 0.0
14 09:55 Calm 10.00 Light Rain SCT045 SCT075 BKN090 71.6 68.2 89% 30.01 0.0 0.18 0.43
14 09:35 SE 5 7.00 Heavy Rain SCT055 SCT075 OVC100 70.9 67.6 90% 30.02 0.0 0.16
14 09:15 NE 8 10.00 Light Rain SCT033 BKN075 OVC100 71.1 66.9 87% 30.03 0.0 0.1
14 08:55 N 8 G 20 2.50 Heavy Rain SCT012 BKN033 OVC055 70.3 68 92% 30.06 0.0 0.24
14 08:35 NW 13 G 30 5.00 Heavy Rain SCT013 SCT025 BKN055 75.9 71.1 85% 76 30.08 0.0 0.03
14 08:15 S 6 10.00 Partly Cloudy SCT049 76.1 72.1 88% 76 30 0.0
14 07:55 S 7 10.00 Mostly Cloudy BKN049 74.7 71.2 89% 30.01 0.0
14 07:35 S 7 10.00 Fair CLR 73.8 70.7 90% 30.01 0.0
14 07:15 S 7 10.00 Fair CLR 72.9 70 91% 30.01 0.0
14 06:55 S 6 10.00 Fair CLR 72 69.3 72.5 69.4 91% 30.02 0.0
14 06:35 S 5 10.00 Fair CLR 71.6 68.9 91% 30.02 0.0
14 06:15 S 5 10.00 Partly Cloudy SCT050 70.3 68 92% 30.02 0.0
14 05:55 S 5 10.00 Partly Cloudy SCT050 69.8 67.5 92% 30.02 0.0
14 05:35 S 6 10.00 Fair CLR 69.8 66.9 91% 30 0.0
14 05:15 S 7 10.00 Fair CLR 69.8 66.2 88% 30 0.0
14 04:55 S 7 10.00 Fair CLR 69.8 66.2 88% 29.99 0.0
14 04:35 S 10 10.00 Fair CLR 69.6 66.2 89% 29.99 0.0
14 04:15 S 8 10.00 Fair CLR 69.8 66.2 88% 30 0.0
14 03:55 S 6 10.00 Fair CLR 69.4 66.2 90% 30.01 0.0
14 03:35 SE 6 10.00 Fair CLR 69.8 66.2 88% 30.02 0.0
14 03:15 SE 6 10.00 Partly Cloudy SCT037 SCT048 SCT090 70 65.7 86% 30.02 0.0
14 02:55 SE 6 10.00 Light Rain SCT039 SCT090 SCT120 70.2 65.3 85% 30.04 0.0
14 02:35 E 3 10.00 Partly Cloudy SCT032 SCT038 SCT120 70.3 65.3 84% 30.07 0.0
14 02:15 N 7 10.00 Overcast SCT031 BKN038 OVC050 70.7 65.3 83% 30.11 0.0
14 01:55 NE 6 10.00 Overcast SCT029 BKN050 OVC095 70.9 65.3 83% 30.1 0.0
14 01:35 E 8 10.00 Overcast SCT023 BKN044 OVC095 70.9 65.5 83% 30.1 0.0
14 01:15 NE 13 G 17 10.00 Overcast BKN025 OVC032 72.1 65.8 81% 30.11 0.0
14 00:55 NE 7 10.00 Overcast BKN023 OVC031 72.5 65.8 79.7 72.5 80% 30.08 0.0
14 00:35 N 9 10.00 Overcast BKN022 BKN030 OVC090 74.1 66.7 78% 30.1 0.0
14 00:15 N 13 10.00 Overcast OVC090 77.4 75.7 95% 79 30.1 0.0
13 23:55 Calm 10.00 Overcast OVC090 76.3 74.7 95% 76 30.07 0.0
13 23:35 Calm 10.00 Partly Cloudy SCT090 77.7 75.2 92% 80 30.07 0.0
13 23:15 Calm 10.00 Fair CLR 78.4 75.2 90% 82 30.07 0.0
13 22:55 S 3 10.00 Fair CLR 78.3 75.2 90% 81 30.05 0.0
13 22:35 S 5 10.00 Fair CLR 77.4 74.8 92% 79 30.04 0.0
13 22:15 S 3 10.00 Fair CLR 76.3 74.3 94% 76 30.06 0.0
13 21:55 Calm 10.00 Fair CLR 75.7 73.6 93% 75 30.07 0.0
13 21:35 SE 3 10.00 Fair CLR 75.4 73.4 94% 74 30.06 0.0
13 21:15 SE 3 10.00 Fair CLR 76.3 73.6 91% 76 30.06 0.0
13 20:55 Calm 10.00 Fair CLR 76.3 73 90% 77 30.04 0.0
13 20:35 E 5 10.00 Fair CLR 77.5 73.4 87% 79 30.03 0.0
13 20:15 Calm 10.00 Fair CLR 78.3 73.6 86% 81 30.05 0.0
13 19:55 S 3 10.00 Fair CLR 78.4 73.4 85% 81 30.05 0.0
13 19:35 E 7 10.00 Fair CLR 79.5 74.8 86% 84 30.05 0.0
13 19:15 S 3 10.00 Fair CLR 78.8 74.3 86% 82 30.05 0.0
13 18:55 SW 8 10.00 Fair CLR 79.3 74.1 90 73.6 84% 83 30.06 0.0 0.01 0.03
13 18:35 SW 10 10.00 Fair CLR 78.3 73.4 85% 81 30.03 0.0 0.01
13 18:15 W 8 10.00 Light Rain SCT110 76.1 72.5 89% 76 30.05 0.0 0.01
13 17:55 SE 10 10.00 Rain BKN110 74.3 70.5 88% 30.06 0.0 0.02
13 17:35 SW 5 10.00 Rain BKN110 74.7 69.1 83% 30.1 0.0 0.01
13 17:15 W 3 10.00 Rain SCT041 SCT065 OVC110 76.3 67.3 74% 78 30.1 0.0
13 16:55 W 9 G 23 10.00 Mostly Cloudy BKN041 BKN047 BKN055 77.5 65.1 66% 79 30.12 0.0
13 16:35 SW 6 10.00 Fair CLR 86.7 71.4 60% 93 30.1 0.0
13 16:15 SW 7 G 17 10.00 Fair CLR 87.8 71.4 58% 94 30.08 0.0
13 15:55 SW 9 G 16 10.00 Fair CLR 88 70.2 56% 93 30.09 0.0
13 15:35 S 10 10.00 Fair CLR 89.6 69.6 52% 95 30.09 0.0
13 15:15 SW 7 10.00 Fair CLR 89.4 70 53% 95 30.1 0.0
13 14:55 S 7 10.00 Fair CLR 90 69.8 52% 95 30.11 0.0
13 14:35 S 8 10.00 Fair CLR 89.6 72.5 57% 97 30.11 0.0
13 14:15 S 9 10.00 Partly Cloudy SCT041 89.1 72.3 58% 96 30.11 0.0
13 13:55 S 10 G 16 10.00 Partly Cloudy SCT041 88.5 71.4 57% 95 30.12 0.0
13 13:35 S 10 G 16 10.00 Partly Cloudy SCT035 SCT041 88.2 71.4 58% 94 30.12 0.0
13 13:15 S 10 G 18 10.00 Mostly Cloudy BKN035 87.3 73 63% 95 30.12 0.0
13 12:55 S 9 10.00 Partly Cloudy SCT035 SCT040 87.1 73.4 87.1 71.8 64% 95 30.12 0.0
13 12:35 S 10 10.00 Mostly Cloudy BKN032 BKN039 86.9 74.3 66% 96 30.13 0.0
13 12:20 S 10 G 17 10.00 Mostly Cloudy BKN030 85.8 73 66% 93 30.13 0.0
13 11:55 S 8 10.00 Partly Cloudy SCT030 85.5 73.8 68% 93 30.14 0.0
13 11:35 S 6 10.00 Fair CLR 85.1 73.6 69% 92 30.15 0.0
13 11:15 S 3 10.00 Fair CLR 84.2 72.7 68% 90 30.15 0.0
13 10:55 S 9 10.00 Partly Cloudy SCT040 83.7 71.4 67% 89 30.16 0.0
13 10:35 S 9 10.00 Fair CLR 83.3 71.8 68% 89 30.16 0.0
13 10:15 S 6 10.00 Partly Cloudy SCT041 81.9 71.8 72% 87 30.16 0.0
13 09:55 S 6 10.00 Overcast OVC041 81.9 71.2 70% 86 30.16 0.0
13 09:35 S 7 10.00 Mostly Cloudy BKN039 81 71.1 72% 85 30.17 0.0
13 09:15 S 6 10.00 Partly Cloudy SCT042 80.6 71.2 73% 84 30.17 0.0
13 08:55 SE 6 10.00 Partly Cloudy SCT042 79.3 71.4 77% 83 30.17 0.0
13 08:35 S 6 10.00 Partly Cloudy SCT040 77.9 70.5 78% 80 30.18 0.0
13 08:15 S 3 10.00 Fair CLR 77 70.9 81% 79 30.18 0.0
13 07:55 Calm 10.00 Partly Cloudy SCT002 SCT060 75.6 70.3 84% 76 30.18 0.0
13 07:35 Calm 10.00 Fair CLR 74.3 70.2 87% 30.18 0.0
13 07:15 Calm 7.00 Fair CLR 72.9 69.8 90% 30.18 0.0
13 06:55 Calm 7.00 Fair CLR 71.6 69.6 71.6 66.2 94% 30.17 0.0
13 06:35 Calm 5.00 Fog/Mist CLR 70 69.1 97% 30.16 0.0
13 06:15 Calm 5.00 Fog/Mist CLR 68 67.5 98% 30.16 0.0
13 05:55 Calm 5.00 Fog/Mist CLR 67.8 67.3 98% 30.16 0.0
13 05:35 Calm 5.00 Fog/Mist CLR 66.4 65.7 98% 30.16 0.0
13 05:15 Calm 5.00 Fog/Mist CLR 66.9 66.4 98% 30.16 0.0
13 04:55 Calm 7.00 Fair CLR 66.6 65.7 97% 30.16 0.0
13 04:35 Calm 7.00 Fair CLR 67.5 66.7 98% 30.15 0.0
13 04:15 Calm 7.00 Fair CLR 68 67.1 97% 30.15 0.0
13 03:55 Calm 7.00 Fair CLR 66.4 65.8 98% 30.14 0.0
13 03:35 Calm 7.00 Fair CLR 66.4 65.8 98% 30.14 0.0
13 03:15 Calm 7.00 Fair CLR 67.1 66.4 98% 30.14 0.0
13 02:55 Calm 10.00 Fair CLR 68 67.1 97% 30.14 0.0
13 02:35 Calm 7.00 Fair CLR 67.3 66.6 98% 30.14 0.0
13 02:15 Calm 7.00 Fair CLR 67.5 66.4 96% 30.14 0.0
13 01:55 Calm 10.00 Fair CLR 68.2 66 93% 30.14 0.0
13 01:35 Calm 10.00 Fair CLR 69.6 66 88% 30.14 0.0
13 01:15 Calm 10.00 Fair CLR 70.9 66.2 85% 30.14 0.0
13 00:55 Calm 10.00 Fair CLR 70.7 66.7 84.7 69.1 87% 30.15 0.0
13 00:35 Calm 10.00 Fair CLR 69.8 67.5 92% 30.15 0.0
13 00:15 Calm 10.00 Fair CLR 69.6 67.5 93% 30.14 0.0
12 23:55 Calm 10.00 Fair CLR 71.2 66.7 86% 30.14 0.0
12 23:35 Calm 10.00 Fair CLR 70.3 67.8 92% 30.14 0.0
12 23:15 Calm 10.00 Fair CLR 72.7 67.3 83% 30.14 0.0
12 22:55 Calm 10.00 Fair CLR 72.1 68.4 88% 30.14 0.0
12 22:35 Calm 10.00 Fair CLR 73 67.5 83% 30.14 0.0
12 22:15 Calm 10.00 Fair CLR 73.4 68 83% 30.14 0.0
12 21:55 Calm 10.00 Partly Cloudy SCT042 75.4 67.5 77% 76 30.14 0.0
12 21:35 Calm 10.00 Partly Cloudy SCT042 76.8 67.6 73% 78 30.14 0.0
12 21:15 E 5 10.00 Fair CLR 77.9 67.6 71% 80 30.13 0.0
Date Time (cdt) Wind (mph) Vis. (mi.) Weather Sky Cond. Air Dwpt Max. Min. Relative Humidity Wind Chill (°F) Heat Index (°F) altimeter (in) sea level (mb) 1 hr 3 hr 6 hr
6 hour
Temperature (ºF) Pressure Precipitation (in)